Tracking 23610 objects as of 20-Sep-2021
HD Live streaming from Space Station
objects crossing your sky now

STARLINK-2575

Track STARLINK-2575 now!
10-day predictions
STARLINK-2575 is classified as:


NORAD ID: 48396
Int'l Code: 2021-038AV
Perigee: 552.8 km
Apogee: 556.0 km
Inclination: 53.1 °
Period: 95.6 minutes
Semi major axis: 6925 km
RCS: Unknown
Launch date: May 4, 2021
Source: United States (US)
Launch site: AIR FORCE EASTERN TEST RANGE (AFETR)
aabbcc
Your satellite tracking list
Your tracking list is empty




NASA's NSSDC Master Catalog

Two Line Element Set (TLE):
1 48396U 21038AV  21262.91667824  .00008418  00000-0  58369-3 0  9995
2 48396  53.0523 106.9177 0002304  98.4628  44.6694 15.06380084  3569
Source of the keplerian elements: AFSPC